Search the data

BODC Cruise Metadata Report for RV Cirolana (74CZ) cruise CIR6B/87

Introduction

This report collates information from the BODC cruise inventory and oceanographic databases. It presents

Cruise Inventory Information

Long name RV Cirolana (74CZ) cruise CIR6B/87
Short name CIR6B/87
Objectives and Narrative The objectives of this cruise were to carry out a full servicing programme in the Irish Sea including:
(1) To turning three current meter moorings around. Accomplished.
(2) Recovering a further five current meter moorings. Accomplished.
(3) Working CTD sections between the Isle of Man and the Scottish, English and Welsh coasts. Accomplished.
(4) Work a line of tetrapod, anchor, thorium geochemistry and a coring stations between Sellafield and Burbo Bight. Accomplished.
Ship RV Cirolana
Departure Port Falmouth, United Kingdom
Departure Date 1987-07-08
Arrival Port Lowestoft, United Kingdom
Arrival Date 1987-07-20
Principal Scientist(s) Robert R Dickson (Ministry of Agriculture, Fisheries and Food Lowestoft Fisheries Laboratory)
Responsible Organisation
Associated Project(s) NANSEN
IHB Sea Areas Visited Irish Sea and St. George's Channel
Marsden Squares Visited 181;1
Work Area Description Eastern Irish Sea/Liverpool Bay
Work Area Bounding Polygon 50N,5W; 55N,5W; 55N,0E; 50N,0E; 50N,5W
Southern Limit 50N
Northern Limit 55N
Western Limit 5W
Eastern Limit 0E

Cruise Inventory Datasets

Physical oceanography  
CTD stations Quantity: number of stations = 112
Description:  
Current meters Quantity: number of recoveries = 8
Description: 8 moorings recoverd, 3 of which were relaid  
Other physical oceanographic measurements Description: NBVR  
Contamination  
Suspended matter Quantity: number of samples = 8
Description:  
Trace metals Quantity: number of samples = 15
Description:  
Geology and geophysics  
Core - soft bottom Quantity: number of cores = 15
Description:  

Cruise Inventory Mooring/Buoy Operations

No information on datasets is currently available

Summary of BODC Data Holdings for the Cruise

National Oceanographic Database

Summary

# Series Instrument Description Parameters
112 CTD/STD cast Salinity of the water column
Temperature of the water column
Vertical spatial coordinates

Note: Parameter terms are taken from the BODC Parameter Discovery Vocabulary XML (SKOS)

Full List

BODC Reference Instrument Description Date/Time Location  
177279 CTD/STD cast 1987-07-10 07:56Z 54° 38' N, 4° 22' W Click for more
177280 CTD/STD cast 1987-07-10 09:53Z 54° 35' N, 4° 21' W Click for more
177292 CTD/STD cast 1987-07-10 11:39Z 54° 30' N, 4° 22' W Click for more
177311 CTD/STD cast 1987-07-10 14:05Z 54° 19' N, 4° 14' W Click for more
177323 CTD/STD cast 1987-07-10 15:44Z 54° 22' N, 4° 3' W Click for more
177335 CTD/STD cast 1987-07-10 17:51Z 54° 27' N, 3° 48' W Click for more
177347 CTD/STD cast 1987-07-10 19:07Z 54° 29' N, 3° 42' W Click for more
177359 CTD/STD cast 1987-07-11 08:11Z 54° 17' N, 3° 37' W Click for more
177360 CTD/STD cast 1987-07-11 09:03Z 54° 17' N, 3° 37' W Click for more
177372 CTD/STD cast 1987-07-11 09:58Z 54° 17' N, 3° 37' W Click for more
177384 CTD/STD cast 1987-07-11 10:53Z 54° 17' N, 3° 37' W Click for more
177396 CTD/STD cast 1987-07-11 11:57Z 54° 17' N, 3° 37' W Click for more
177403 CTD/STD cast 1987-07-11 12:55Z 54° 17' N, 3° 37' W Click for more
177415 CTD/STD cast 1987-07-11 13:55Z 54° 17' N, 3° 37' W Click for more
177427 CTD/STD cast 1987-07-11 14:55Z 54° 17' N, 3° 37' W Click for more
177439 CTD/STD cast 1987-07-11 15:53Z 54° 17' N, 3° 37' W Click for more
177440 CTD/STD cast 1987-07-11 16:55Z 54° 17' N, 3° 37' W Click for more
177452 CTD/STD cast 1987-07-11 17:54Z 54° 17' N, 3° 37' W Click for more
177464 CTD/STD cast 1987-07-11 18:53Z 54° 17' N, 3° 37' W Click for more
177476 CTD/STD cast 1987-07-11 20:00Z 54° 17' N, 3° 37' W Click for more
177488 CTD/STD cast 1987-07-11 20:56Z 54° 17' N, 3° 37' W Click for more
177507 CTD/STD cast 1987-07-11 21:55Z 54° 17' N, 3° 37' W Click for more
177519 CTD/STD cast 1987-07-11 22:56Z 54° 17' N, 3° 37' W Click for more
177520 CTD/STD cast 1987-07-11 23:54Z 54° 17' N, 3° 37' W Click for more
177532 CTD/STD cast 1987-07-12 00:53Z 54° 17' N, 3° 37' W Click for more
177544 CTD/STD cast 1987-07-12 01:55Z 54° 17' N, 3° 37' W Click for more
177556 CTD/STD cast 1987-07-12 02:59Z 54° 17' N, 3° 37' W Click for more
177568 CTD/STD cast 1987-07-12 03:57Z 54° 17' N, 3° 37' W Click for more
177581 CTD/STD cast 1987-07-12 04:57Z 54° 17' N, 3° 37' W Click for more
177593 CTD/STD cast 1987-07-12 05:33Z 54° 17' N, 3° 37' W Click for more
177600 CTD/STD cast 1987-07-12 08:24Z 54° 1' N, 3° 34' W Click for more
177612 CTD/STD cast 1987-07-12 08:56Z 54° 1' N, 3° 34' W Click for more
177624 CTD/STD cast 1987-07-12 09:56Z 54° 1' N, 3° 34' W Click for more
177636 CTD/STD cast 1987-07-12 10:56Z 54° 1' N, 3° 34' W Click for more
177648 CTD/STD cast 1987-07-12 11:58Z 54° 1' N, 3° 34' W Click for more
177661 CTD/STD cast 1987-07-12 12:53Z 54° 1' N, 3° 34' W Click for more
177673 CTD/STD cast 1987-07-12 13:53Z 54° 1' N, 3° 34' W Click for more
177685 CTD/STD cast 1987-07-12 14:59Z 54° 1' N, 3° 34' W Click for more
177697 CTD/STD cast 1987-07-12 15:54Z 54° 1' N, 3° 34' W Click for more
177704 CTD/STD cast 1987-07-12 16:53Z 54° 1' N, 3° 34' W Click for more
177716 CTD/STD cast 1987-07-12 17:52Z 54° 1' N, 3° 34' W Click for more
177728 CTD/STD cast 1987-07-12 18:53Z 54° 1' N, 3° 34' W Click for more
177741 CTD/STD cast 1987-07-12 19:56Z 54° 1' N, 3° 34' W Click for more
177753 CTD/STD cast 1987-07-12 20:56Z 54° 1' N, 3° 34' W Click for more
177765 CTD/STD cast 1987-07-12 21:57Z 54° 1' N, 3° 34' W Click for more
177777 CTD/STD cast 1987-07-12 22:59Z 54° 1' N, 3° 34' W Click for more
177789 CTD/STD cast 1987-07-12 23:55Z 54° 1' N, 3° 34' W Click for more
177790 CTD/STD cast 1987-07-13 00:58Z 54° 1' N, 3° 34' W Click for more
177808 CTD/STD cast 1987-07-13 01:54Z 54° 1' N, 3° 34' W Click for more
177821 CTD/STD cast 1987-07-13 02:53Z 54° 1' N, 3° 34' W Click for more
177833 CTD/STD cast 1987-07-13 03:52Z 54° 1' N, 3° 34' W Click for more
177845 CTD/STD cast 1987-07-13 04:52Z 54° 1' N, 3° 34' W Click for more
177857 CTD/STD cast 1987-07-13 05:28Z 54° 1' N, 3° 34' W Click for more
177869 CTD/STD cast 1987-07-13 08:18Z 53° 44' N, 3° 25' W Click for more
177870 CTD/STD cast 1987-07-13 08:55Z 53° 44' N, 3° 25' W Click for more
177882 CTD/STD cast 1987-07-13 10:01Z 53° 44' N, 3° 25' W Click for more
177894 CTD/STD cast 1987-07-13 10:54Z 53° 44' N, 3° 25' W Click for more
177901 CTD/STD cast 1987-07-13 11:54Z 53° 44' N, 3° 25' W Click for more
177913 CTD/STD cast 1987-07-13 12:53Z 53° 44' N, 3° 25' W Click for more
177925 CTD/STD cast 1987-07-13 13:55Z 53° 44' N, 3° 25' W Click for more
177937 CTD/STD cast 1987-07-13 14:56Z 53° 44' N, 3° 25' W Click for more
177949 CTD/STD cast 1987-07-13 15:51Z 53° 44' N, 3° 25' W Click for more
177950 CTD/STD cast 1987-07-13 16:58Z 53° 44' N, 3° 25' W Click for more
177962 CTD/STD cast 1987-07-13 17:56Z 53° 44' N, 3° 25' W Click for more
177974 CTD/STD cast 1987-07-13 18:56Z 53° 44' N, 3° 25' W Click for more
177986 CTD/STD cast 1987-07-13 19:53Z 53° 44' N, 3° 25' W Click for more
177998 CTD/STD cast 1987-07-13 20:54Z 53° 44' N, 3° 25' W Click for more
178001 CTD/STD cast 1987-07-13 21:53Z 53° 44' N, 3° 25' W Click for more
178013 CTD/STD cast 1987-07-13 22:52Z 53° 44' N, 3° 25' W Click for more
178025 CTD/STD cast 1987-07-13 23:53Z 53° 44' N, 3° 25' W Click for more
178037 CTD/STD cast 1987-07-14 00:53Z 53° 44' N, 3° 25' W Click for more
178049 CTD/STD cast 1987-07-14 01:53Z 53° 44' N, 3° 25' W Click for more
178050 CTD/STD cast 1987-07-14 02:55Z 53° 44' N, 3° 25' W Click for more
178062 CTD/STD cast 1987-07-14 03:58Z 53° 44' N, 3° 25' W Click for more
178074 CTD/STD cast 1987-07-14 04:55Z 53° 44' N, 3° 25' W Click for more
178086 CTD/STD cast 1987-07-14 05:27Z 53° 44' N, 3° 25' W Click for more
178098 CTD/STD cast 1987-07-14 08:10Z 53° 30' N, 3° 28' W Click for more
178105 CTD/STD cast 1987-07-14 08:56Z 53° 30' N, 3° 28' W Click for more
178117 CTD/STD cast 1987-07-14 09:57Z 53° 30' N, 3° 28' W Click for more
178129 CTD/STD cast 1987-07-14 10:57Z 53° 30' N, 3° 28' W Click for more
178130 CTD/STD cast 1987-07-14 11:56Z 53° 30' N, 3° 28' W Click for more
178142 CTD/STD cast 1987-07-14 12:56Z 53° 30' N, 3° 28' W Click for more
178154 CTD/STD cast 1987-07-14 13:54Z 53° 30' N, 3° 28' W Click for more
178166 CTD/STD cast 1987-07-14 14:53Z 53° 30' N, 3° 28' W Click for more
178178 CTD/STD cast 1987-07-14 15:50Z 53° 30' N, 3° 28' W Click for more
178191 CTD/STD cast 1987-07-14 16:58Z 53° 30' N, 3° 28' W Click for more
178209 CTD/STD cast 1987-07-14 17:53Z 53° 30' N, 3° 28' W Click for more
178210 CTD/STD cast 1987-07-14 18:52Z 53° 30' N, 3° 28' W Click for more
178222 CTD/STD cast 1987-07-14 19:56Z 53° 30' N, 3° 28' W Click for more
178234 CTD/STD cast 1987-07-14 20:53Z 53° 30' N, 3° 28' W Click for more
178246 CTD/STD cast 1987-07-14 21:55Z 53° 30' N, 3° 28' W Click for more
178258 CTD/STD cast 1987-07-14 22:54Z 53° 30' N, 3° 28' W Click for more
178271 CTD/STD cast 1987-07-14 23:54Z 53° 30' N, 3° 28' W Click for more
178283 CTD/STD cast 1987-07-15 00:55Z 53° 30' N, 3° 28' W Click for more
178295 CTD/STD cast 1987-07-15 01:59Z 53° 30' N, 3° 28' W Click for more
178302 CTD/STD cast 1987-07-15 02:54Z 53° 30' N, 3° 28' W Click for more
178314 CTD/STD cast 1987-07-15 03:56Z 53° 30' N, 3° 28' W Click for more
178326 CTD/STD cast 1987-07-15 04:56Z 53° 30' N, 3° 28' W Click for more
178338 CTD/STD cast 1987-07-15 05:23Z 53° 30' N, 3° 28' W Click for more
178351 CTD/STD cast 1987-07-15 05:48Z 53° 30' N, 3° 28' W Click for more
178363 CTD/STD cast 1987-07-15 06:14Z 53° 30' N, 3° 28' W Click for more
178375 CTD/STD cast 1987-07-15 06:53Z 53° 30' N, 3° 28' W Click for more
178387 CTD/STD cast 1987-07-15 09:50Z 53° 44' N, 3° 25' W Click for more
178399 CTD/STD cast 1987-07-15 13:46Z 54° 1' N, 3° 34' W Click for more
178406 CTD/STD cast 1987-07-15 16:33Z 54° 17' N, 3° 38' W Click for more
178418 CTD/STD cast 1987-07-16 06:10Z 54° 29' N, 3° 42' W Click for more
178431 CTD/STD cast 1987-07-16 09:52Z 54° 30' N, 3° 39' W Click for more
178443 CTD/STD cast 1987-07-16 12:23Z 54° 27' N, 3° 49' W Click for more
178455 CTD/STD cast 1987-07-16 14:27Z 54° 22' N, 4° 3' W Click for more
178467 CTD/STD cast 1987-07-17 05:55Z 53° 58' N, 4° 40' W Click for more
178479 CTD/STD cast 1987-07-17 08:34Z 53° 46' N, 4° 39' W Click for more
178480 CTD/STD cast 1987-07-17 10:46Z 53° 36' N, 4° 38' W Click for more

Project Database

No data currently held for this cruise in the BODC Project Database

References

Track Charts

Track Chart

Reports

Cruise Report